Regional Weather Roundup
Issued by NWS New Orleans/Baton Rouge, LA

Home | Current Version | Previous Version | Text Only | Print | Product List | Glossary On
Versions: 1 2 3 4 5 6 7 8 9 10 11 12 13 14 15 16 17 18 19 20 21 22 23 24 25 26 27 28 29 30 31 32 33 34 35 36 37 38 39 40 41 42 43 44 45 46 47 48 49 50
000
ASUS44 KLIX 302106
RWRLIX
NEW ORLEANS REGIONAL WEATHER ROUNDUP
NATIONAL WEATHER SERVICE NEW ORLEANS LA
400 PM CDT SUN AUG 30 2015

NOTE: "FAIR" INDICATES FEW OR NO CLOUDS BELOW 12,000 FEET WITH NO
      SIGNIFICANT WEATHER AND/OR OBSTRUCTIONS TO VISIBILITY.
      SKY/WX - SKY CONDITION AND SIGNIFICANT WEATHER.
      TMP - AIR TEMPERATURE.     DP    - DEWPOINT TEMPERATURE.
      RH  - RELATIVE HUMIDITY.   PRES  - PRESSURE.
      HI  - HEAT INDEX.          WCI   - WIND CHILL INDEX.

*  THESE STATIONS ARE NOT NWS OR FAA STATIONS AND ARE NOT UNDER
   NWS QUALITY CONTROL.

LAZ038-040-048-061>063-065>067-069-302200-
SOUTHEAST LOUISIANA

CITY           SKY/WX    TMP DP  RH WIND       PRES   REMARKS
N.O. AUDUBON     N/A     93  72  50 MISG        N/A  HX 100
N.O. INTL ARPT PTSUNNY   90  64  42 CALM      30.00F
N.O. LAKEFRONT MOSUNNY   87  66  49 W7        30.01F
N.O. DOWNTOWN* MOCLDY    90  64  43 CALM      30.01F
RESERVE*         N/A     91  68  47 SE6       30.00F HX  95
SLIDELL        MOSUNNY   90  67  46 VRB6      29.99F
BATON ROUGE    SUNNY     91  65  41 W6        30.00F
BOOTHVILLE     MOSUNNY   88  66  48 E7        30.03F
BELLE CHASSE   PTSUNNY   87  69  54 E6        30.01F
BOGALUSA*      NOT AVBL
GALLIANO*      CLOUDY    89  64  42 CALM      30.01F
NEW ROADS*       N/A     88  65  45 W3        30.00F
GONZALES*      CLOUDY    90  66  46 N3        29.99F
HAMMOND*       MOSUNNY   95  52  23 NW8       30.00F
HOUMA*         MOSUNNY   84  72  65 S7        30.02
PORT FOURCHON* CLEAR     86  68  54 SE7       30.02F

$$

MSZ070-080>082-302200-
SOUTHERN MISSISSIPPI

CITY           SKY/WX    TMP DP  RH WIND       PRES   REMARKS
MCCOMB         MOSUNNY   93  65  39 SE8       30.00F HX  95
GULFPORT       SUNNY     88  67  49 S10       29.99F
BILOXI         SUNNY     88  68  50 S10       30.00F
PASCAGOULA     SUNNY     87  66  49 SW7       30.00F

$$

COASTAL OBSERVATIONS
LAKE AND NEARSHORE STATIONS

STATION/POSITION TIME  TEMP    WIND        PRES    WAVE
                       AIR SEA DIR/SP/G            HT/PER
                 (UTC) (F)     (DEG/KT/KT) (MB)    (FT/S)

OFFSHORE STATIONS

STATION/POSITION TIME  TEMP    WIND        PRES    WAVE
                       AIR SEA DIR/SP/G            HT/PER
                 (UTC) (F)     (DEG/KT/KT) (MB)    (FT/S)
64 S DAUPHIN ISL 2050   83 88  340/  4/  6 1016.5    1/ 5

$$




USA.gov is the U.S. government's official web portal to all federal, state and local government web resources and services.